This is the latest recevied weather packets stored in our database for station/object JS1SZZ-13. If no packets are shown the sender has not sent any weather packets the latest 10 day(s).
| Time | Temp. | Humidity | Pressure | Rain* | Wind** | Luminosity | Snow |
|---|---|---|---|---|---|---|---|
| 1788079359 | 23.89° C | 79% | 1008.8 hPa | 0 mm | - | - | - |
| 1788078458 | 24.44° C | 76% | 1008.6 hPa | 0 mm | - | - | - |
| 1788077558 | 24.44° C | 72% | 1008.6 hPa | 0 mm | - | - | - |
| 1788076659 | 24.44° C | 75% | 1008.5 hPa | 0 mm | - | - | - |
| 1788075759 | 24.44° C | 72% | 1008.6 hPa | 0 mm | - | - | - |
| 1788074859 | 25° C | 73% | 1008.2 hPa | 0 mm | - | - | - |
| 1788073959 | 25° C | 71% | 1008.4 hPa | 0 mm | - | - | - |
| 1788073058 | 25.56° C | 73% | 1008.2 hPa | 0 mm | - | - | - |
| 1788072159 | 25.56° C | 72% | 1008.3 hPa | 0 mm | - | - | - |
| 1788071258 | 25° C | 72% | 1008.1 hPa | 0 mm | - | - | - |
| 1788070358 | 25.56° C | 72% | 1008.2 hPa | 0 mm | - | - | - |
| 1788069459 | 26.11° C | 72% | 1008.2 hPa | 0 mm | - | - | - |
| 1788068558 | 25.56° C | 70% | 1008.3 hPa | 0 mm | - | - | - |
| 1788067659 | 25.56° C | 70% | 1008.6 hPa | 0 mm | - | - | - |
| 1788066758 | 25.56° C | 65% | 1008.6 hPa | 0 mm | - | - | - |
| 1788065859 | 25.56° C | 62% | 1008.6 hPa | 0 mm | - | - | - |
| 1788064959 | 26.11° C | 68% | 1008.7 hPa | 0 mm | - | - | - |
| 1788064058 | 25.56° C | 66% | 1008.6 hPa | 0 mm | - | - | - |
| 1788063160 | 25.56° C | 67% | 1008.8 hPa | 0 mm | - | - | - |
| 1788062259 | 25.56° C | 72% | 1008.7 hPa | 0 mm | - | - | - |
| 1788061359 | 25° C | 69% | 1008.6 hPa | 0 mm | - | - | - |
| 1788060459 | 24.44° C | 74% | 1009.2 hPa | 0 mm | - | - | - |
| 1788059558 | 23.89° C | 77% | 1008.8 hPa | 0 mm | - | - | - |
| 1788058658 | 23.33° C | 75% | 1009.1 hPa | 0 mm | - | - | - |
| 1788057758 | 23.89° C | 74% | 1009.1 hPa | 0 mm | - | - | - |
* Rain latest hour (hover to see other rain measurements)
** Current wind speed in m/s (hover to see current wind gust speed)